This demonstration page uses our WeatherBlox Daily Observations layout. Learn more.

40.92945, -100.16068

Hourly Observations for March 31, 2020

Temp ( °F °C ) Dew Point ( °F °C ) Humidity (%) Winds ( mph kmh ) Pressure ( in mb ) Visibility ( mi km ) Precip ( " mm )
12:15 am 00:15 Cloudy 46 7.8 44 6.8 93 93 S 5 7 30.07 1018 10 16.0934 0 0
12:35 am 00:35 Cloudy 46 7.7 44 6.8 94 94 Calm 30.07 1018 10 16.0934 0 0
12:55 am 00:55 Cloudy 46 7.6 44 6.7 94 94 SW 5 7 30.07 1018 10 16.0934 0 0
1:15 am 01:15 Cloudy 46 7.6 45 7 96 96 NW 3 6 30.08 1019 10 16.0934 0 0
1:35 am 01:35 Cloudy 46 7.5 44 6.7 95 95 ENE 3 6 30.09 1019 10 16.0934 0 0
1:55 am 01:55 Cloudy with Rain 46 8 45 7 93 93 ESE 6 9 30.09 1019 10 16.0934 0.01 0.254
2:15 am 02:15 Cloudy 46 7.8 45 7 95 95 ESE 3 6 30.08 1019 10 16.0934 0 0
2:35 am 02:35 Cloudy with Light Rain 46 7.5 45 7 97 97 ESE 3 6 30.08 1019 10 16.0934 0.01 0.254
2:55 am 02:55 Cloudy 46 7.5 44 6.9 96 96 SE 5 7 30.07 1018 10 16.0934 0.01 0.254
3:15 am 03:15 Cloudy 45 7 44 6.5 97 97 SSE 5 7 30.08 1019 10 16.0934 0 0
3:35 am 03:35 Cloudy 44 6.6 43 6.3 98 98 S 5 7 30.08 1019 10 16.0934 0 0
3:55 am 03:55 Mostly Cloudy 42 5.8 42 5.8 100 100 S 5 7 30.08 1019 10 16.0934 0 0
4:15 am 04:15 Mostly Cloudy 41 5.2 41 5.2 100 100 S 6 9 30.09 1019 10 16.0934 0 0
4:35 am 04:35 Mostly Cloudy 41 4.8 41 4.8 100 100 S 6 9 30.09 1019 7 11.26538 0 0
4:55 am 04:55 Mostly Cloudy 41 5 41 5 100 100 S 7 11 30.08 1019 7 11.26538 0 0
5:15 am 05:15 Mostly Cloudy 40 4.7 40 4.7 100 100 S 6 9 30.09 1019 10 16.0934 0 0
5:35 am 05:35 Mostly Cloudy 43 6.1 42 5.8 98 98 WSW 3 6 30.08 1019 10 16.0934 0 0
5:55 am 05:55 Cloudy 43 6.2 43 6 99 99 Calm 30.08 1019 10 16.0934 0 0
6:15 am 06:15 Cloudy 44 6.5 43 6 97 97 WSW 3 6 30.07 1018 10 16.0934 0 0
6:35 am 06:35 Cloudy 45 7 43 6.3 95 95 SW 8 13 30.06 1018 10 16.0934 0 0
6:55 am 06:55 Cloudy 44 6.7 43 6.2 97 97 SW 9 15 30.06 1018 10 16.0934 0 0
7:15 am 07:15 Cloudy 44 6.5 43 6.1 97 97 WSW 6 9 30.06 1018 10 16.0934 0 0
7:35 am 07:35 Cloudy 44 6.5 43 6 97 97 SW 8 13 30.07 1018 10 16.0934 0 0
7:55 am 07:55 Cloudy 44 6.5 43 6.2 98 98 SW 8 13 30.07 1018 10 16.0934 0 0
8:15 am 08:15 Cloudy 44 6.5 43 6.2 98 98 SW 7 11 30.06 1018 10 16.0934 0 0
8:35 am 08:35 Cloudy 44 6.5 43 6.2 98 98 SW 8 13 30.07 1018 10 16.0934 0 0
8:55 am 08:55 Cloudy 44 6.5 43 6.2 98 98 WSW 9 15 30.07 1018 10 16.0934 0 0
9:15 am 09:15 Cloudy 44 6.6 43 6.2 97 97 SW 9 15 30.06 1018 10 16.0934 0 0
9:35 am 09:35 Cloudy 45 7 44 6.5 97 97 SSW 10 17 30.06 1018 10 16.0934 0 0
9:55 am 09:55 Cloudy 45 7.1 44 6.5 96 96 SW 10 17 30.06 1018 10 16.0934 0 0
10:15 am 10:15 Cloudy 46 7.5 44 6.7 95 95 SSW 12 19 30.04 1017 10 16.0934 0 0
10:35 am 10:35 Cloudy 46 7.7 44 6.7 93 93 SSW 9 15 30.04 1017 10 16.0934 0 0
10:55 am 10:55 Cloudy 47 8.4 45 7.1 92 92 SW 12 19 30.04 1017 10 16.0934 0 0
11:15 am 11:15 Cloudy 48 8.9 46 7.6 92 92 SSW 10 17 30.03 1017 10 16.0934 0 0
11:35 am 11:35 Cloudy 49 9.5 46 7.7 89 89 SSW 13 20 30.02 1016 10 16.0934 0 0
11:55 am 11:55 Cloudy 50 10.2 46 8 86 86 SSW 13 20 30.01 1016 10 16.0934 0 0
12:15 pm 12:15 Mostly Cloudy 52 11.2 48 8.7 85 85 SSW 13 20 29.99 1016 10 16.0934 0 0
12:35 pm 12:35 Partly Cloudy 53 11.9 48 9.1 83 83 SSW 9 15 29.97 1015 10 16.0934 0 0
12:55 pm 12:55 Sunny 55 12.6 49 9.5 82 82 SSW 13 20 29.96 1014 10 16.0934 0 0
1:15 pm 13:15 Sunny 56 13.5 48 9.1 75 75 SSW 13 20 29.94 1014 10 16.0934 0 0
1:35 pm 13:35 Sunny 58 14.5 49 9.6 73 73 SSW 14 22 29.91 1013 10 16.0934 0 0
1:55 pm 13:55 Sunny 60 15.3 47 8.6 65 65 SSW 10 17 29.89 1012 10 16.0934 0 0
2:15 pm 14:15 Sunny 61 16.1 48 9 63 63 SW 13 20 29.88 1012 10 16.0934 0 0
2:35 pm 14:35 Sunny 63 17 48 9.1 60 60 SSW 15 24 29.86 1011 10 16.0934 0 0
2:55 pm 14:55 Sunny 64 17.5 45 7.4 52 52 SSW 12 19 29.83 1010 10 16.0934 0 0
3:15 pm 15:15 Partly Cloudy 65 18.6 47 8.3 51 51 SSW 15 24 29.82 1010 10 16.0934 0 0
3:35 pm 15:35 Mostly Cloudy 66 19 42 5.5 41 41 SSW 14 22 29.8 1009 10 16.0934 0 0
3:55 pm 15:55 Partly Cloudy 66 18.7 42 5.8 43 43 SSW 17 28 29.79 1009 10 16.0934 0 0
4:15 pm 16:15 Sunny 67 19.7 43 6.3 42 42 SSW 18 30 29.78 1008 10 16.0934 0 0
4:35 pm 16:35 Sunny 67 19.3 43 5.9 42 42 SSW 17 28 29.77 1008 10 16.0934 0 0
4:55 pm 16:55 Partly Cloudy 67 19.4 43 6.3 43 43 S 16 26 29.76 1008 10 16.0934 0 0
5:15 pm 17:15 Sunny 68 19.8 42 5.7 40 40 SSW 17 28 29.74 1007 10 16.0934 0 0
5:35 pm 17:35 Partly Cloudy 69 20.5 42 5.3 37 37 SSW 16 26 29.74 1007 10 16.0934 0 0
5:55 pm 17:55 Mostly Cloudy 68 20.1 41 5.2 38 38 SSW 14 22 29.74 1007 10 16.0934 0 0
6:15 pm 18:15 Mostly Cloudy 68 19.9 41 4.9 37 37 SSW 16 26 29.74 1007 10 16.0934 0 0
6:35 pm 18:35 Partly Cloudy 65 18.6 41 4.9 41 41 SSW 13 20 29.75 1008 10 16.0934 0 0
6:55 pm 18:55 Sunny 65 18.3 41 4.9 41 41 SSW 16 26 29.76 1008 10 16.0934 0 0
7:15 pm 19:15 Mostly Cloudy 64 18 41 5.2 43 43 S 13 20 29.76 1008 10 16.0934 0 0
7:35 pm 19:35 Partly Cloudy 63 17 41 5.2 46 46 SSW 12 19 29.77 1008 10 16.0934 0 0
7:55 pm 19:55 Mostly Cloudy 60 15.7 42 5.5 51 51 S 8 13 29.78 1008 10 16.0934 0 0
8:15 pm 20:15 Mostly Cloudy 58 14.3 43 6 58 58 S 8 13 29.78 1009 10 16.0934 0 0
8:35 pm 20:35 Mostly Cloudy 56 13.3 43 6 62 62 S 7 11 29.79 1009 10 16.0934 0 0
8:55 pm 20:55 Mostly Cloudy 55 12.8 42 5.7 62 62 S 8 13 29.8 1009 10 16.0934 0 0
9:15 pm 21:15 Cloudy 58 14.3 42 5.5 56 56 S 12 19 29.79 1009 10 16.0934 0 0
9:35 pm 21:35 Cloudy 59 15 41 5.1 52 52 S 12 19 29.79 1009 10 16.0934 0 0
9:55 pm 21:55 Cloudy 56 13.5 41 4.9 56 56 S 10 17 29.8 1009 10 16.0934 0 0
10:15 pm 22:15 Partly Cloudy 54 12.4 40 4.6 59 59 S 9 15 29.81 1009 10 16.0934 0 0
10:35 pm 22:35 Partly Cloudy 53 11.5 40 4.2 61 61 S 8 13 29.82 1010 10 16.0934 0 0
10:55 pm 22:55 Partly Cloudy 53 11.5 40 4.2 61 61 S 9 15 29.82 1010 10 16.0934 0 0
11:15 pm 23:15 Clear 51 10.7 39 4.1 64 64 SSW 9 15 29.82 1010 10 16.0934 0 0
11:35 pm 23:35 Clear 51 10.6 39 4.1 64 64 S 8 13 29.82 1010 10 16.0934 0 0
11:55 pm 23:55 Clear 53 11.6 40 4.4 62 62 SSW 10 17 29.81 1009 10 16.0934 0 0

Powered by AerisWeather